Location: Newark
(56.0692°N, 115.8617°E)
Time: 08:44:32
(UTC+00:00)

Vanguard 2 Rocket - Visible Passes

Search period start: 17 June 2021 00:00
Search period end: 27 June 2021 00:00
Orbit: 554 x 3325 km, 32.9° (Epoch: 16 June)

Date Brightness Start Highest point End Pass type
(mag) Time Alt. Az. Time Alt. Az. Time Alt. Az.
17 Jun 9.3 15:48:07 10° WSW 15:56:48 19° SSW 16:02:29 12° SSE visible
18 Jun 9.5 14:45:51 10° WSW 14:57:04 24° SSW 15:05:05 10° SSE visible
18 Jun 9.4 17:05:10 10° WSW 17:08:50 12° SW 17:11:28 11° SSW visible
19 Jun 9.3 16:01:18 10° WSW 16:09:31 18° SSW 16:14:41 12° S visible
20 Jun 9.5 14:58:36 10° WSW 15:09:51 23° SSW 15:17:53 10° SSE visible
21 Jun 9.7 13:56:22 10° WSW 14:09:49 27° SSW 14:19:36 10° SE visible
21 Jun 9.6 16:15:04 10° WSW 16:22:04 15° SW 16:26:49 11° SSW visible
22 Jun 9.6 15:11:43 10° WSW 15:22:29 21° SSW 15:30:00 11° S visible
23 Jun 9.7 14:09:08 10° WSW 14:22:30 26° SSW 14:32:26 10° SSE visible
23 Jun 9.8 16:30:06 10° WSW 16:34:24 12° SW 16:38:11 10° SSW visible
24 Jun 9.7 15:25:19 10° WSW 15:34:54 18° SW 15:42:06 11° S visible
25 Jun 9.8 14:22:15 10° WSW 14:35:01 24° SSW 14:44:52 10° SSE visible
26 Jun 10.0 15:39:47 10° WSW 15:47:08 14° SW 15:53:23 10° SSW visible
